Hourly Weather Ludwinowo

Today, 20 June, Sunday

Time Temperature Precipitation Wind Pressure Humidity
00:00 +24°C° 0 mm 3 mps 753 mmHg 77%
01:00 +22°C° 0 mm 3 mps 753 mmHg 79%
02:00 +21°C° 0 mm 3 mps 753 mmHg 81%
03:00 +21°C° 0 mm 3 mps 753 mmHg 82%
04:00 +20°C° 0 mm 3 mps 753 mmHg 84%
05:00 +21°C° 0 mm 3 mps 753 mmHg 79%
06:00 +23°C° 0 mm 4 mps 753 mmHg 75%
07:00 +25°C° 0 mm 4 mps 753 mmHg 70%
08:00 +26°C° 0 mm 4 mps 753 mmHg 64%
09:00 +27°C° 0 mm 4 mps 753 mmHg 58%
10:00 +28°C° 0 mm 4 mps 753 mmHg 52%
11:00 +29°C° 0 mm 5 mps 753 mmHg 50%
12:00 +30°C° 0 mm 5 mps 752 mmHg 47%
13:00 +30°C° 0 mm 5 mps 752 mmHg 45%
14:00 +30°C° 0 mm 5 mps 751 mmHg 46%
15:00 +32°C° 0 mm 5 mps 751 mmHg 47%
16:00 +32°C° 0 mm 4 mps 751 mmHg 47%
17:00 +29°C° 0 mm 4 mps 751 mmHg 54%
18:00 +28°C° 0 mm 4 mps 750 mmHg 61%
19:00 +26°C° 0 mm 3 mps 750 mmHg 68%
20:00 +25°C° 0 mm 3 mps 750 mmHg 70%
21:00 +23°C° 0 mm 4 mps 750 mmHg 72%
22:00 +22°C° 0 mm 4 mps 750 mmHg 74%
23:00 +21°C° 0 mm 4 mps 750 mmHg 79%

Tomorrow, 21 June, Monday

Time Temperature Precipitation Wind Pressure Humidity
00:00 +21°C° 0 mm 3 mps 750 mmHg 84%
01:00 +20°C° 0 mm 3 mps 750 mmHg 89%
02:00 +20°C° 0 mm 3 mps 750 mmHg 90%
03:00 +20°C° 0 mm 3 mps 750 mmHg 92%
04:00 +19°C° 0 mm 3 mps 749 mmHg 94%
05:00 +21°C° 0 mm 4 mps 749 mmHg 86%
06:00 +23°C° 0 mm 5 mps 749 mmHg 79%
07:00 +25°C° 0 mm 5 mps 749 mmHg 71%
08:00 +26°C° 0 mm 6 mps 749 mmHg 66%
09:00 +28°C° 0 mm 6 mps 749 mmHg 61%
10:00 +29°C° 0 mm 6 mps 749 mmHg 55%
11:00 +29°C° 0 mm 5 mps 749 mmHg 53%
12:00 +30°C° 0 mm 5 mps 749 mmHg 51%
13:00 +32°C° 0 mm 5 mps 748 mmHg 49%
14:00 +32°C° 0 mm 4 mps 748 mmHg 49%
15:00 +32°C° 0 mm 4 mps 748 mmHg 49%
16:00 +32°C° 0 mm 4 mps 748 mmHg 49%
17:00 +30°C° 0 mm 4 mps 748 mmHg 57%
18:00 +28°C° 0 mm 3 mps 748 mmHg 65%
19:00 +26°C° 0 mm 3 mps 748 mmHg 73%
20:00 +25°C° 0.1 mm 3 mps 748 mmHg 77%
21:00 +24°C° 0.1 mm 3 mps 748 mmHg 81%
22:00 +23°C° 0.1 mm 2 mps 748 mmHg 84%
23:00 +23°C° 0.1 mm 2 mps 748 mmHg 87%

Day after tomorrow, 22 June, Tuesday

Time Temperature Precipitation Wind Pressure Humidity
00:00 +21°C° 0.1 mm 2 mps 748 mmHg 89%
01:00 +22°C° 0.1 mm 1 mps 748 mmHg 91%
02:00 +21°C° 0.1 mm 1 mps 748 mmHg 93%
03:00 +21°C° 0.1 mm 1 mps 748 mmHg 94%
04:00 +20°C° 0.1 mm 1 mps 748 mmHg 95%
05:00 +20°C° 0.1 mm 2 mps 748 mmHg 92%
06:00 +21°C° 0.1 mm 2 mps 749 mmHg 89%
07:00 +24°C° 0.1 mm 2 mps 749 mmHg 86%
08:00 +24°C° 0.1 mm 2 mps 749 mmHg 82%
09:00 +25°C° 0.1 mm 3 mps 750 mmHg 79%
10:00 +26°C° 0.1 mm 3 mps 750 mmHg 75%
11:00 +26°C° 0.1 mm 3 mps 750 mmHg 74%
12:00 +26°C° 0.1 mm 3 mps 750 mmHg 74%
13:00 +26°C° 0.1 mm 3 mps 751 mmHg 73%
14:00 +27°C° 0 mm 3 mps 751 mmHg 69%
15:00 +28°C° 0 mm 3 mps 751 mmHg 65%
16:00 +29°C° 0 mm 3 mps 751 mmHg 61%
17:00 +28°C° 0.1 mm 3 mps 751 mmHg 66%
18:00 +27°C° 0.1 mm 2 mps 751 mmHg 71%
19:00 +26°C° 0.1 mm 2 mps 751 mmHg 76%
20:00 +25°C° 0.1 mm 2 mps 751 mmHg 81%
21:00 +22°C° 0.1 mm 3 mps 751 mmHg 87%
22:00 +20°C° 0.1 mm 3 mps 751 mmHg 93%
23:00 +20°C° 0 mm 3 mps 751 mmHg 94%

23 June, Wednesday

Time Temperature Precipitation Wind Pressure Humidity
00:00 +19°C° 0 mm 3 mps 752 mmHg 94%
01:00 +18°C° 0 mm 3 mps 752 mmHg 94%
02:00 +18°C° 0 mm 3 mps 752 mmHg 94%
03:00 +17°C° 0 mm 3 mps 752 mmHg 93%
04:00 +17°C° 0 mm 3 mps 752 mmHg 92%
05:00 +18°C° 0 mm 3 mps 752 mmHg 88%
06:00 +20°C° 0 mm 3 mps 752 mmHg 84%
07:00 +22°C° 0 mm 4 mps 752 mmHg 80%
08:00 +24°C° 0 mm 3 mps 752 mmHg 75%
09:00 +26°C° 0 mm 3 mps 752 mmHg 70%
10:00 +27°C° 0 mm 3 mps 752 mmHg 65%
11:00 +28°C° 0.2 mm 2 mps 752 mmHg 63%
12:00 +29°C° 0.2 mm 2 mps 752 mmHg 61%
13:00 +29°C° 0.2 mm 1 mps 752 mmHg 59%
14:00 +29°C° 0.5 mm 1 mps 753 mmHg 60%
15:00 +29°C° 0.5 mm 1 mps 753 mmHg 60%
16:00 +29°C° 0.5 mm 2 mps 753 mmHg 61%
17:00 +27°C° 0.4 mm 3 mps 753 mmHg 69%
18:00 +26°C° 0.4 mm 4 mps 753 mmHg 77%
19:00 +23°C° 0.4 mm 5 mps 753 mmHg 85%
20:00 +21°C° 0 mm 5 mps 754 mmHg 88%
21:00 +20°C° 0 mm 4 mps 754 mmHg 91%
22:00 +18°C° 0 mm 4 mps 755 mmHg 93%
23:00 +18°C° 0 mm 4 mps 755 mmHg 94%

24 June, Thursday

Time Temperature Precipitation Wind Pressure Humidity
00:00 +17°C° 0 mm 4 mps 755 mmHg 94%
01:00 +17°C° 0 mm 3 mps 755 mmHg 94%
02:00 +17°C° 0 mm 3 mps 755 mmHg 93%
03:00 +17°C° 0 mm 3 mps 755 mmHg 92%
04:00 +17°C° 0 mm 3 mps 755 mmHg 91%
05:00 +18°C° 0 mm 3 mps 755 mmHg 87%
06:00 +19°C° 0 mm 3 mps 755 mmHg 83%
07:00 +20°C° 0 mm 3 mps 755 mmHg 78%
08:00 +21°C° 0 mm 2 mps 755 mmHg 74%
09:00 +23°C° 0 mm 2 mps 755 mmHg 70%
10:00 +25°C° 0 mm 1 mps 755 mmHg 66%
11:00 +26°C° 0 mm 1 mps 754 mmHg 64%
12:00 +26°C° 0 mm 1 mps 754 mmHg 62%
13:00 +27°C° 0 mm 1 mps 754 mmHg 59%
14:00 +27°C° 0.1 mm 2 mps 754 mmHg 60%
15:00 +27°C° 0.1 mm 2 mps 753 mmHg 60%
16:00 +27°C° 0.1 mm 2 mps 753 mmHg 61%
17:00 +26°C° 0.4 mm 2 mps 753 mmHg 70%
18:00 +24°C° 0.4 mm 3 mps 753 mmHg 79%
19:00 +21°C° 0.4 mm 3 mps 753 mmHg 87%
20:00 +20°C° 1 mm 3 mps 753 mmHg 91%
21:00 +19°C° 1 mm 3 mps 753 mmHg 94%
22:00 +19°C° 1 mm 2 mps 753 mmHg 97%
23:00 +18°C° 0.1 mm 2 mps 753 mmHg 97%

25 June, Friday

Time Temperature Precipitation Wind Pressure Humidity
00:00 +18°C° 0.1 mm 3 mps 753 mmHg 96%
01:00 +18°C° 0.1 mm 3 mps 753 mmHg 96%
02:00 +18°C° 0.2 mm 3 mps 753 mmHg 96%
03:00 +17°C° 0.2 mm 3 mps 753 mmHg 96%
04:00 +17°C° 0.2 mm 3 mps 753 mmHg 96%
05:00 +17°C° 0.2 mm 4 mps 753 mmHg 96%
06:00 +15°C° 0.2 mm 4 mps 754 mmHg 95%
07:00 +15°C° 0.2 mm 4 mps 754 mmHg 95%
08:00 +15°C° 0.1 mm 4 mps 754 mmHg 93%
09:00 +16°C° 0.1 mm 3 mps 755 mmHg 91%
10:00 +16°C° 0.1 mm 3 mps 755 mmHg 90%
11:00 +18°C° 0 mm 3 mps 755 mmHg 80%
12:00 +20°C° 0 mm 3 mps 755 mmHg 71%
13:00 +22°C° 0 mm 3 mps 755 mmHg 62%
14:00 +22°C° 0 mm 3 mps 754 mmHg 59%
15:00 +24°C° 0 mm 2 mps 754 mmHg 57%
16:00 +24°C° 0 mm 2 mps 754 mmHg 55%
17:00 +23°C° 0 mm 2 mps 754 mmHg 59%
18:00 +21°C° 0 mm 2 mps 753 mmHg 64%
19:00 +22°C° 0 mm 1 mps 753 mmHg 68%
20:00 +20°C° 0 mm 1 mps 754 mmHg 73%
21:00 +19°C° 0 mm 1 mps 754 mmHg 78%
22:00 +16°C° 0 mm 1 mps 754 mmHg 83%
23:00 +16°C° 0 mm 1 mps 754 mmHg 85%
Show more

We Need Your Consent

Meteoprog and our Service Providers may store and access personal data such as cookies, device identifiers or other similar technologies on your device and process such data to personalise content and ads, as well as provide social media features and to analyse the traffic.

  • Store and/or access information on your device

    Cookies, device identifiers or other information can be stored or accessed on your device for the purposes indicated above.

  • Personalised ads and content, ad and content measurement, audience insights, and products development

    Ads and content can be personalised based on a profile. More data can be added to better personalise ads and content. Ad and content performance can be measured. Insights about the audience who saw the ads and content can be derived. Such data can be used to develop or improve user’s experience, systems and software.

By clicking ‘I Agree’ you will allow the use of indicated cookies, device identifiers, web beacons or other similar technologies. Your settings can be changed in the browser on your device.

For certain purposes, legitimate interests may be relied on, rather than consent. You can read more about this in our Privacy and Cookie Policy.